CAPE
210 341 226 724 697 514 486 423 469 751 550 212 86 222 836 1109 1137 802 557 687 1049 723 548 1184 2622 2710 2815 3256 3132 3090 3065 2615 2710 2198 1674 2284 2418 2206 2479 1322 1561 1847 1882 1972 2171 2069 1527 2231 2315
728 609 551 145 471 383 251 112 696 983 613 598 242 622 989 1477 734 459 615 660 1162 710 545 802 2515 2902 2839 3099 3119 3157 2716 2532 2413 2095 2195 2325 2062 2211 2403 1264 1682 1726 2330 2422 1365 1787 1785 1689 2042
714 376 398 372 495 563 567 166 678 487 644 554 669 745 881 903 437 469 732 631 1009 777 568 1499 2530 2899 2555 2707 3007 3041 2770 2130 2214 2289 2423 2329 1814 2333 2196 1327 1766 2161 2105 1925 543 380 1421 1758 1988
516 698 679 666 651 942 751 776 792 748 618 569 392 306 278 293 302 554 553 458 995 814 807 1416 2434 2010 2441 2699 2860 2333 2438 2453 2516 2426 2217 2141 2024 2252 1887 1440 1740 1855 1519 1034 604 37 304 1473 1908
358 584 553 423 639 321 311 642 328 544 427 466 239 87 441 319 217 420 395 282 977 724 919 1066 2466 2577 2693 2250 2523 2295 1922 1933 1894 1768 1674 1847 1934 2034 1948 1958 1790 1651 1121 776 574 383 564 756 1150
541 543 391 207 244 267 301 348 452 523 459 399 79 184 606 501 729 519 323 132 415 823 733 886 2169 2377 2325 1872 1839 2227 2395 1899 2131 2171 1985 1845 1644 1765 1729 1602 1725 1707 1388 1012 790 629 764 751 794
596 527 331 351 531 623 701 723 494 484 649 243 102 513 655 417 695 515 255 60 77 89 196 575 851 1719 1767 1716 1499 1487 1797 2174 2044 2063 2085 1727 1425 1268 1190 1242 1225 1207 1086 975 756 535 482 604 433
494 449 393 278 413 482 719 686 483 520 723 392 521 748 812 643 555 576 337 37 3 53 119 476 663 1015 1262 1426 1306 1383 1532 1667 2002 2204 1951 970 788 622 703 503 963 1026 1259 1183 1027 648 480 426 737
196 475 218 167 206 479 789 610 610 541 714 743 771 853 1136 800 555 638 588 58 12 54 206 617 882 1402 970 1016 1161 1578 1703 1651 1954 1593 810 136 99 0 140 189 519 355 656 220 471 711 932 583 563
158 274 313 367 198 77 562 622 630 529 544 964 1151 1217 1109 909 930 651 590 191 17 39 163 370 693 1180 1510 1045 1579 1629 2270 1366 2046 599 874 236 9 45 47 316 94 130 255 696 645 990 1310 1121 434
0 207 255 312 458 542 501 721 747 453 534 668 1256 1496 1314 1061 708 900 876 547 35 17 93 192 440 580 687 592 1068 942 2141 2065 1839 1436 876 495 251 197 244 351 153 116 99 229 424 634 1153 921 763
120 0 12 97 387 558 669 638 720 594 700 358 1113 1429 1385 1178 735 399 510 513 77 11 49 131 210 461 391 373 352 320 1486 2363 963 1546 1182 786 418 371 329 9 10 30 170 117 296 731 1194 1215 1126
0 0 1 14 217 533 747 663 655 579 549 636 1139 1406 1389 1269 931 554 283 294 105 34 10 60 197 507 484 461 343 429 837 1481 1027 1815 1534 1603 667 419 185 285 185 12 34 154 242 1182 1509 1290 1241
0 0 9 122 237 375 610 614 703 796 915 955 1213 1377 1374 1328 1127 810 411 344 128 43 28 42 146 389 459 512 485 994 856 1936 1636 1161 1074 1212 1040 1289 964 1112 1089 155 153 60 377 1411 1081 1383 1260
0 23 11 16 344 437 647 646 674 1089 1202 1294 1298 1384 1422 1507 1421 1233 646 375 121 157 247 82 140 172 362 433 545 790 1260 1336 1002 1625 1243 804 1141 1283 1284 1713 1148 195 104 113 356 1247 1517 1133 1493
35 29 54 9 175 622 597 117 635 1239 1406 1422 1401 1476 1510 1717 1680 1653 1278 677 358 162 95 136 129 98 237 343 565 883 1168 925 2646 1639 1146 684 1267 1487 1095 1666 1093 383 146 162 639 1438 1934 1890 1479
49 85 30 21 147 462 546 142 867 1171 1342 1560 1703 1755 1731 1893 1838 1838 1596 1031 321 120 77 1037 381 780 1059 1165 583 932 888 1381 1069 1538 1294 1393 1273 1786 621 1897 1128 948 700 750 735 1166 1583 1339 539
39 30 27 39 45 92 448 523 694 1031 1388 1320 1771 1787 1929 2090 2138 1981 1852 1530 635 110 122 1285 301 20 15 132 1016 2268 893 881 1086 2731 2077 1687 1641 1801 1554 1877 1317 1162 778 762 673 1276 1148 883 1089
0 16 30 26 79 325 406 408 312 1041 1228 1298 1398 1743 1979 2114 2059 2003 1817 1685 1587 1353 1060 1051 45 27 17 138 391 1073 671 809 1419 1455 1561 1478 1590 1424 1739 1512 1665 1273 1145 823 970 1489 1255 975 729
10 28 39 36 116 147 335 426 602 870 1117 1153 1383 1743 1919 1917 2018 1885 1687 1614 1415 1421 616 146 60 21 24 486 2173 2399 2251 1635 1656 1616 2234 1659 1286 1594 1495 1617 1583 1593 805 937 978 1098 1816 1044 714
27 22 12 6 0 92 415 432 587 898 1142 1368 1355 1457 1672 1769 1637 1768 1528 1484 1230 1471 587 370 667 417 694 1346 1966 1915 1731 1982 1838 2013 1205 1483 1364 922 1461 1497 1288 1573 1330 693 728 919 1026 1572 1032
26 0 0 0 0 126 348 355 469 338 814 1519 1627 1639 1619 1566 1512 1324 1236 1222 1004 1294 1325 1262 985 753 635 1369 1813 1814 1598 2124 2729 2717 1200 964 801 725 1113 1040 1406 1572 1056 626 663 513 620 1278 1903
10 0 0 0 0 81 252 324 336 447 125 175 917 1501 1728 1599 1351 1068 1204 1279 1347 1134 1165 1362 1106 593 1018 1378 1557 2190 1677 2464 2036 2469 1394 1030 841 1338 1289 1324 1448 1424 1387 904 753 589 1019 714 1271
0 0 0 0 5 171 133 176 172 213 134 146 943 1307 1752 1494 1020 1148 1249 1105 1023 976 989 1178 1456 1443 1566 1795 1804 1971 1923 1848 2034 2061 1947 1280 1271 1392 1704 1536 1558 1298 1562 1591 1233 1229 1242 1098 950
0 0 111 155 162 133 143 63 108 117 93 159 407 1265 1800 1186 1034 1111 1182 971 875 910 1052 1389 1616 1749 1635 1914 1974 2035 2028 2060 1830 1751 1519 1688 1793 1627 1653 1808 1628 2391 1465 1551 1595 1377 1460 1458 1429
0 11 176 167 164 186 274 13 64 1 22 435 430 797 1579 1167 919 916 965 966 886 933 1053 986 1377 1621 1656 1722 1966 2366 2430 2044 1764 1833 1582 1556 1745 1925 1593 1926 1667 1573 1412 1418 1334 1338 1420 1237 1397
0 0 4 8 3 8 25 14 1 7 2 220 603 726 1349 1110 909 801 817 898 830 609 820 989 1411 1685 1867 1895 2418 2521 2471 2147 1979 2185 1736 1055 1523 2030 2514 2299 1949 1758 1747 1666 1949 1615 1469 1405 1424
0 4 15 29 60 119 107 15 10 1 30 169 554 688 1160 1131 993 820 701 735 783 630 641 848 1088 1457 1908 1923 2189 2284 2421 2489 2582 2364 1986 2212 2382 2105 2642 2607 2400 2180 1981 1840 2020 2286 2096 1560 1493
0 0 0 10 28 105 117 60 19 14 2 156 175 653 1047 1170 1160 895 798 746 807 758 760 847 1287 1502 1811 2018 2071 2204 2395 2390 2283 2179 2306 2484 2511 2302 2167 2244 2524 1951 1989 2084 2240 2211 1997 1967 2055
0 40 27 51 101 93 28 3 4 113 156 170 256 647 912 1196 1254 909 797 794 904 962 877 1008 1301 1860 1986 2112 2478 2525 2567 2797 2628 2646 2488 2337 2263 2264 2427 2501 2279 1788 1912 1976 1987 1912 1741 1840 1890
CIN
-257 -216 -204 -128 -4 -0 -0 -11 -61 -1 -2 -23 -34 -3 -0 -1 -0 -2 -26 -5 -0 -3 -6 -0 -0 -0 -0 -0 -0 -0 -0 -0 -0 -0 -1 -0 -0 -0 -0 -18 -7 -0 -0 -0 -0 -6 -16 -0 -0
-110 -162 -139 -69 -0 -0 -2 -46 -4 -0 -1 -1 -8 -0 -0 -0 -49 -73 -41 -13 -0 -1 -0 -0 -0 -0 -0 -0 -0 -0 -0 -0 -0 -0 -0 -0 -1 -0 -0 -18 -3 -0 -0 -0 -2 -2 -4 -3 -0
-131 -167 -49 -15 -0 -0 -0 -27 -23 -43 -21 -0 -0 -1 -0 -25 -70 -41 -33 -16 -0 -0 -1 -0 -0 -0 -0 -0 -0 -0 -0 -0 -0 -1 -0 -1 -0 -1 -0 -12 -0 -0 -0 -1 -35 -26 -1 -2 -0
-75 -50 -35 -0 -0 -4 -0 -4 -13 -7 -0 -6 -4 -13 -82 -93 -64 -46 -38 -18 -0 -0 -0 -1 -0 -0 -0 -0 -0 -0 -0 -0 -0 -0 -0 -0 -0 -0 -0 -0 -0 -0 -0 -18 -45 -120 -35 -1 -0
-77 -46 -0 -0 -0 -19 -31 -18 -36 -0 -0 -0 -11 -62 -57 -90 -93 -61 -38 -22 -0 -0 -0 -0 -0 -0 -0 -0 -0 -0 -0 -0 -0 -1 -2 -0 -0 -0 -0 -0 -0 -0 -1 -18 -30 -40 -26 -16 -6
-19 -17 -0 -0 -13 -19 -12 -22 -19 -0 -2 -17 -44 -44 -33 -54 -29 -26 -33 -38 -6 -0 -0 -0 -0 -0 -0 -0 -0 -0 -0 -0 -0 -0 -0 -0 -1 -0 -0 -0 -0 -0 -0 -4 -9 -18 -14 -15 -14
-2 -0 -0 -0 -0 -2 -8 -16 -13 -1 -1 -10 -32 -2 -33 -39 -11 -13 -36 -60 -40 -28 -20 -0 -0 -0 -0 -0 -0 -0 -0 -0 -0 -0 -0 -0 -0 -0 -0 -0 -0 -0 -0 -1 -7 -16 -16 -5 -12
-21 -0 -0 -0 -0 -0 -8 -14 -23 -9 -12 -23 -8 -2 -28 -57 -47 -31 -40 -69 -0 -43 -34 -5 -1 -0 -0 -0 -0 -0 -0 -0 -0 -0 -0 -51 -35 -18 -23 -24 -2 -4 -1 -0 -3 -15 -13 -6 -5
-55 -0 -0 -0 -0 -4 -16 -7 -22 -23 -11 -4 -8 -0 -23 -79 -56 -33 -27 -71 -28 -61 -25 -0 -0 -0 -0 -0 -0 -0 -0 -0 -0 -1 -34 -59 -45 -0 -42 -40 -8 -6 -6 -21 -11 -6 -0 -9 -9
-14 -0 -0 -3 -0 -3 -7 -8 -10 -4 -4 -5 -25 -32 -69 -66 -36 -47 -34 -87 -117 -94 -42 -4 -0 -0 -0 -0 -0 -0 -2 -0 -0 -9 -23 -88 -60 -78 -41 -9 -25 -15 -12 -7 -12 -4 -2 -7 -0
-0 -0 -6 -3 -7 -5 -7 -14 -13 -4 -2 -3 -3 -35 -48 -38 -35 -13 -7 -21 -100 -112 -61 -34 -10 -0 -0 -4 -0 -0 -7 -0 -0 -0 -3 -34 -34 -10 -1 -0 -0 -0 -7 -7 -7 -3 -0 -0 -0
-2 -0 -10 -29 -9 -14 -8 -12 -11 -10 -9 -24 -18 -43 -32 -25 -27 -35 -14 -7 -48 -116 -85 -33 -19 -5 -1 -0 -0 -0 -23 -0 -0 -0 -0 -0 -0 -0 -0 -30 -66 -7 -3 -0 -0 -0 -0 -0 -0
-0 -0 -22 -39 -18 -11 -19 -11 -9 -13 -21 -38 -27 -48 -35 -11 -6 -9 -20 -10 -41 -71 -132 -55 -25 -9 -1 -2 -0 -0 -1 -0 -0 -0 -0 -0 -0 -0 -0 -2 -4 -53 -28 -0 -0 -0 -0 -3 -0
-0 -0 -24 -14 -8 -6 -9 -10 -22 -27 -38 -44 -40 -28 -27 -12 -13 -23 -41 -33 -48 -77 -116 -83 -31 -14 -8 -2 -6 -0 -0 -3 -1 -0 -0 -0 -0 -0 -0 -0 -0 -13 -0 -2 -0 -1 -0 -0 -7
-0 -2 -4 -11 -3 -4 -12 -7 -8 -25 -31 -31 -42 -37 -28 -24 -15 -33 -62 -70 -139 -129 -66 -71 -27 -29 -25 -14 -3 -0 -0 -0 -42 -5 -3 -5 -0 -0 -0 -0 -0 -13 -6 -2 -0 -0 -0 -11 -0
-0 -0 -0 -7 -9 -15 -16 -0 -8 -36 -23 -18 -29 -44 -42 -33 -28 -19 -27 -47 -92 -97 -88 -30 -21 -29 -18 -13 -0 -0 -0 -0 -0 -12 -4 -8 -0 -0 -7 -0 -0 -0 -0 -0 -0 -0 -0 -6 -6
-0 -0 -0 -0 -8 -7 -8 -0 -35 -42 -19 -18 -29 -29 -35 -34 -27 -18 -13 -29 -97 -147 -112 -0 -22 -15 -3 -1 -0 -0 -0 -0 -0 -3 -0 -2 -0 -0 -17 -0 -0 -0 -0 -0 -0 -0 -0 -0 -44
-0 -0 -0 -0 -3 -10 -2 -2 -19 -35 -33 -17 -24 -19 -23 -27 -19 -14 -7 -4 -29 -93 -76 -1 -20 -50 -136 -68 -0 -0 -0 -0 -0 -0 -0 -9 -0 -0 -0 -0 -0 -0 -0 -0 -0 -0 -0 -26 -4
-0 -0 -0 -0 -9 -1 -0 -0 -0 -13 -34 -30 -14 -22 -21 -21 -14 -7 -8 -0 -0 -1 -1 -0 -86 -143 -86 -12 -5 -0 -0 -0 -0 -0 -1 -3 -0 -0 -0 -0 -0 -0 -0 -0 -0 -0 -2 -0 -0
-0 -0 -0 -4 -3 -3 -2 -4 -2 -14 -24 -28 -25 -29 -27 -15 -12 -19 -6 -0 -12 -2 -48 -52 -63 -20 -31 -2 -0 -0 -0 -0 -0 -0 -1 -0 -0 -0 -4 -0 -3 -0 -0 -0 -0 -0 -0 -0 -0
-0 -0 -0 -0 -0 -13 -3 -2 -4 -6 -25 -49 -55 -44 -25 -11 -0 -0 -6 -0 -0 -0 -27 -20 -0 -0 -0 -0 -0 -0 -0 -0 -2 -0 -0 -0 -5 -21 -0 -0 -4 -2 -0 -0 -0 -0 -0 -0 -0
-0 -0 -0 -0 -0 -0 -7 -0 -1 -3 -4 -32 -29 -43 -29 -13 -22 -21 -12 -3 -5 -0 -0 -0 -0 -0 -0 -0 -0 -0 -0 -0 -0 -0 -31 -26 -29 -27 -3 -4 -0 -0 -0 -0 -0 -0 -0 -0 -1
-1 -0 -0 -0 -0 -0 -0 -0 -0 -8 -11 -0 -8 -25 -19 -3 -14 -44 -29 -6 -0 -0 -0 -0 -0 -0 -0 -0 -0 -0 -0 -0 -0 -0 -16 -27 -34 -0 -0 -0 -0 -0 -0 -0 -0 -0 -0 -0 -0
-0 -0 -0 -0 -0 -0 -0 -0 -0 -0 -0 -7 -11 -24 -39 -22 -35 -53 -30 -25 -5 -1 -0 -0 -0 -0 -0 -0 -0 -0 -0 -0 -0 -2 -0 -0 -8 -0 -0 -0 -0 -0 -0 -0 -0 -0 -0 -0 -0
-0 -0 -4 -5 -1 -0 -5 -11 -0 -3 -0 -9 -7 -19 -50 -64 -46 -53 -39 -43 -19 -7 -0 -0 -0 -0 -0 -0 -0 -0 -0 -0 -0 -0 -0 -1 -6 -2 -0 -0 -0 -0 -0 -0 -0 -0 -0 -0 -0
-0 -4 -0 -0 -0 -0 -8 -3 -0 -0 -10 -33 -32 -26 -32 -55 -47 -43 -47 -41 -34 -9 -1 -0 -0 -0 -0 -0 -0 -0 -0 -0 -0 -0 -0 -0 -16 -19 -15 -0 -0 -0 -0 -0 -0 -0 -0 -0 -0
-0 -0 -0 -0 -0 -2 -0 -0 -0 -2 -0 -14 -29 -28 -24 -50 -45 -52 -51 -38 -40 -39 -10 -1 -0 -0 -0 -0 -0 -0 -0 -0 -0 -0 -8 -38 -32 -3 -0 -0 -0 -0 -0 -0 -0 -0 -0 -0 -0
-0 -0 -17 -36 -6 -2 -0 -1 -0 -0 -1 -1 -12 -21 -30 -36 -41 -46 -51 -41 -35 -27 -19 -8 -2 -0 -0 -0 -0 -0 -0 -0 -1 -0 -18 -0 -10 -20 -0 -0 -0 -0 -0 -0 -0 -0 -0 -0 -0
-0 -0 -0 -8 -20 -0 -0 -0 -0 -2 -1 -7 -9 -28 -38 -48 -32 -37 -41 -44 -37 -23 -13 -8 -2 -0 -0 -0 -0 -0 -0 -0 -2 -0 -0 -0 -0 -1 -2 -2 -0 -0 -0 -0 -0 -0 -0 -0 -0
-0 -60 -36 -6 -0 -3 -29 -6 -0 -7 -10 -25 -21 -31 -47 -39 -22 -30 -45 -46 -39 -28 -24 -29 -10 -0 -0 -0 -0 -0 -0 -0 -0 -0 -0 -0 -0 -0 -0 -0 -0 -0 -0 -0 -0 -0 -0 -0 -0
Wind_Speed
8 4 2 4 4 2 6 7 2 7 7 4 10 3 6 9 8 6 16 14 21 19 18 16 14 16 17 17 18 18 17 17 16 14 13 11 11 10 10 9 7 7 8 8 9 10 11 13 12
4 1 4 2 4 8 7 7 5 7 5 4 7 4 2 9 9 14 15 19 21 18 18 17 13 15 16 16 17 17 17 17 16 15 12 11 10 9 11 10 8 7 7 8 8 9 10 11 11
7 3 4 2 2 7 6 8 7 7 4 2 5 6 5 6 7 17 17 21 20 17 15 18 14 15 16 16 16 16 16 16 15 14 11 11 8 7 10 9 8 7 7 7 5 7 8 9 10
5 6 5 3 13 7 9 9 2 4 3 3 4 8 9 4 12 10 19 20 20 15 15 19 17 17 16 16 16 16 15 15 14 13 11 11 8 9 10 8 6 6 5 5 4 3 6 8 9
4 3 4 10 12 8 5 5 4 3 3 5 2 8 9 10 9 18 18 17 20 16 16 17 16 16 15 16 16 16 16 15 13 12 11 10 10 10 9 9 7 6 3 4 4 5 4 5 5
5 4 9 10 13 8 7 7 4 4 5 6 10 12 10 8 17 19 17 17 19 19 19 18 16 15 15 16 16 15 15 15 13 13 13 11 8 8 7 6 6 4 3 2 2 3 3 3 4
5 3 12 13 11 8 7 4 3 6 7 6 8 10 7 10 18 17 15 17 16 16 16 16 15 16 16 15 15 14 14 14 14 13 13 13 8 7 6 4 4 3 2 2 2 2 3 3 3
1 2 9 9 8 11 8 6 5 3 8 8 1 7 9 12 18 16 14 17 16 15 16 15 16 15 14 14 16 15 14 15 15 15 14 20 9 3 5 6 4 3 3 1 2 4 3 3 5
2 4 8 8 6 9 9 6 4 5 8 3 3 4 16 23 20 16 14 16 16 14 16 16 15 16 14 13 13 14 15 14 14 12 12 7 6 9 3 1 5 2 3 3 6 6 5 4 7
4 6 7 2 4 8 9 4 7 6 6 9 8 13 23 24 21 19 17 18 19 18 17 17 15 15 14 11 12 11 8 10 8 7 4 3 4 3 4 4 3 4 5 7 6 7 7 8 7
1 6 3 4 0 2 7 6 4 3 4 3 9 17 22 22 21 21 20 19 20 19 16 16 16 14 14 9 9 6 7 5 7 9 8 3 3 5 5 5 5 6 6 9 9 8 6 9 6
3 2 2 4 1 2 5 4 4 3 6 5 9 18 22 22 21 21 21 20 20 19 18 18 16 14 13 9 8 8 4 5 8 8 10 7 6 7 7 4 2 4 6 7 7 3 5 6 5
2 3 3 2 1 3 1 4 2 2 3 1 13 18 19 19 18 17 18 17 17 18 17 17 16 13 12 10 8 6 7 9 10 8 9 7 8 5 5 4 5 6 8 7 6 5 4 2 6
6 5 4 1 2 4 6 3 4 5 5 7 13 15 16 17 18 16 16 16 16 14 13 15 15 14 13 11 9 6 8 7 5 8 9 11 7 5 5 5 7 5 6 7 6 2 4 4 2
3 3 4 2 2 1 4 7 6 7 7 10 11 12 13 15 16 16 16 17 12 11 8 9 15 16 14 12 10 8 8 9 2 3 5 4 10 6 7 6 6 4 6 6 6 5 3 2 4
3 5 7 6 3 4 7 6 6 7 8 10 10 10 11 13 15 14 14 14 13 12 16 15 14 16 14 10 9 8 9 7 7 5 6 10 11 8 6 6 5 4 5 6 5 4 3 3 2
8 5 3 4 4 3 9 9 4 8 9 9 10 11 11 12 13 13 14 14 12 13 9 13 7 5 5 6 9 10 10 6 5 6 7 10 11 10 6 7 5 5 5 5 6 1 3 2 2
6 7 5 4 4 7 8 11 3 7 10 9 10 10 11 12 14 14 14 13 16 15 15 13 8 6 4 4 8 8 8 9 7 7 7 7 8 9 8 6 6 6 5 6 5 4 3 3 5
2 2 3 3 3 4 5 9 5 7 10 10 11 10 11 11 10 12 13 12 13 13 17 15 15 17 10 8 10 12 9 9 7 6 9 8 7 9 8 7 7 7 6 5 6 6 4 5 1
5 4 3 5 3 7 1 9 6 8 10 11 12 11 12 12 12 11 12 13 12 14 8 14 16 16 14 9 9 7 4 6 6 4 6 7 6 6 6 6 5 8 6 6 7 5 3 5 2
9 6 2 7 9 7 6 10 7 8 11 10 13 12 12 12 12 14 12 12 12 13 12 14 15 17 17 15 7 5 5 4 3 4 5 4 5 5 7 6 4 5 7 7 7 7 5 4 1
13 4 4 6 9 6 1 8 4 4 8 12 14 14 12 10 8 6 9 11 12 12 13 16 15 17 15 12 11 10 7 6 4 4 2 4 5 6 7 7 9 9 7 6 7 6 6 5 3
12 2 7 8 12 9 11 7 5 4 8 7 12 12 11 10 8 8 9 10 12 11 12 13 15 17 13 12 10 8 10 5 4 4 4 4 4 9 6 7 8 9 8 7 7 7 7 5 3
7 9 9 9 11 12 7 5 8 7 4 6 2 6 10 10 9 9 10 11 12 11 10 14 15 13 13 11 12 11 10 8 5 4 5 4 5 6 8 9 8 7 7 7 8 7 7 7 5
11 12 10 10 11 10 7 5 8 12 7 8 7 6 12 11 12 11 13 13 13 12 13 13 15 14 12 13 12 11 10 7 6 6 4 5 4 4 6 9 10 7 9 9 9 8 8 8 8
14 18 10 9 10 6 7 8 5 12 6 5 7 6 13 13 12 13 13 13 13 14 14 13 14 13 13 12 12 9 8 7 6 6 4 4 3 4 6 8 9 9 8 8 8 7 8 8 8
10 12 11 14 6 10 13 6 10 4 9 7 7 7 12 13 12 13 13 13 14 14 14 12 13 12 12 12 10 9 8 6 4 3 2 3 2 3 6 7 8 8 9 9 8 8 9 7 9
13 5 11 12 13 14 7 7 7 6 9 1 8 10 10 13 12 12 13 13 13 13 13 12 12 12 11 11 10 9 7 6 5 7 6 6 2 3 4 7 7 8 8 9 9 8 8 9 9
11 13 11 11 6 10 11 5 6 5 8 9 8 10 12 15 14 12 12 12 12 11 11 12 11 11 11 11 10 8 5 6 5 5 3 2 3 3 1 3 6 5 7 8 9 9 8 10 10
14 21 19 11 14 10 8 12 7 3 7 8 9 6 11 15 15 14 13 13 13 12 12 12 12 12 11 11 10 9 8 9 10 8 6 5 4 2 2 2 4 5 6 5 6 7 6 8 9
Wind_Direction
244 218 262 232 217 107 118 111 339 143 157 160 156 237 39 24 360 46 138 133 137 141 138 144 129 124 126 129 134 134 134 134 135 133 141 144 136 128 127 123 129 131 120 111 104 104 101 95 93
294 258 226 251 224 116 117 136 163 105 83 156 148 168 173 85 65 132 128 141 143 145 149 140 132 128 128 127 128 130 134 135 135 141 151 139 142 149 137 133 134 124 117 113 97 100 104 102 101
250 257 248 221 137 110 128 128 142 134 151 234 129 38 20 52 118 140 135 148 143 145 145 125 138 134 133 127 126 129 133 135 138 144 155 148 157 152 137 132 132 112 113 119 117 104 98 106 109
229 189 198 164 107 85 123 146 144 151 120 124 105 85 97 87 137 122 149 151 134 144 143 132 144 143 140 136 134 133 134 137 141 139 136 130 138 136 131 127 130 120 120 125 113 123 91 103 106
224 234 126 109 99 114 119 107 141 145 123 112 195 90 94 141 114 137 152 153 138 153 139 149 146 148 144 138 137 139 141 141 138 139 138 131 133 128 129 132 142 128 121 118 131 127 94 101 114
173 248 139 103 102 112 119 140 158 122 98 107 113 106 80 123 134 147 160 150 153 153 148 142 150 148 142 145 144 144 146 150 150 141 133 125 126 118 113 120 119 115 117 120 121 130 113 97 123
59 118 99 115 118 140 129 156 153 112 107 107 128 97 93 147 137 147 170 151 158 150 146 157 158 150 150 150 149 150 147 141 139 140 129 110 107 110 105 105 119 144 157 144 143 225 202 184 173
84 143 128 120 134 115 129 150 134 74 78 112 102 119 151 163 156 154 167 156 159 158 152 155 166 163 163 159 160 159 157 153 159 151 145 128 137 146 115 15 303 215 185 187 215 241 253 212 205
292 180 116 119 124 130 145 148 136 121 132 126 84 67 121 149 154 152 162 166 164 170 167 154 177 164 170 168 165 165 169 165 166 168 162 146 150 208 115 232 283 275 224 264 276 259 241 219 214
295 109 80 57 93 98 139 158 146 172 148 132 113 103 131 150 158 161 168 177 173 174 180 163 188 171 167 181 161 182 170 183 187 182 152 148 186 217 258 268 213 252 258 258 268 263 258 213 234
65 67 61 118 182 32 131 167 171 181 132 135 158 144 154 162 167 169 182 180 177 178 178 174 185 179 178 184 178 187 146 199 199 181 186 181 207 215 225 245 206 209 204 259 203 220 241 226 228
166 71 341 359 117 187 182 153 172 216 76 40 145 160 164 171 174 178 185 183 183 181 184 181 182 184 188 181 195 191 136 185 207 199 203 200 203 208 207 206 270 263 290 252 244 252 256 265 233
202 43 323 329 232 228 160 206 102 123 177 187 142 164 174 177 177 182 185 185 187 179 190 190 183 185 196 201 198 206 178 210 224 171 206 214 242 222 229 235 207 224 228 237 238 282 248 294 233
357 322 307 201 198 211 231 193 212 100 145 138 157 173 178 182 179 177 185 187 192 175 201 188 192 187 201 202 215 181 218 246 174 224 200 210 237 243 255 237 247 215 225 226 253 238 273 218 200
322 213 200 99 205 262 265 236 225 129 162 155 173 177 179 185 182 187 187 188 180 179 200 201 194 189 197 201 204 221 203 201 261 262 229 240 236 232 250 245 246 231 212 252 251 265 285 94 241
269 248 215 102 183 142 227 310 126 179 187 176 176 178 188 189 193 189 194 194 184 183 189 199 203 194 183 187 207 225 222 242 177 204 202 213 240 236 255 250 248 201 222 231 243 241 276 200 270
204 224 244 154 193 150 222 295 87 201 215 186 187 189 195 194 201 200 197 194 181 192 186 196 189 128 150 206 214 220 226 241 233 209 227 230 233 236 219 248 220 213 231 224 249 219 246 281 265
139 245 196 279 123 227 227 259 173 207 225 218 196 203 199 202 203 198 201 199 191 201 202 171 166 134 243 245 250 243 234 231 249 208 236 217 219 216 225 238 232 217 220 229 223 237 207 148 223
104 264 264 111 126 257 249 276 278 216 221 225 218 204 217 216 201 197 201 195 207 187 203 184 169 168 191 214 219 223 220 223 230 250 256 233 203 219 215 214 213 222 227 239 211 216 244 258 132
241 245 220 165 141 276 355 287 273 255 239 232 224 214 224 224 199 200 208 193 199 205 161 163 180 186 194 207 222 242 235 227 228 228 248 236 216 212 225 220 222 224 216 204 219 237 248 254 65
226 289 41 343 320 233 271 253 241 240 234 228 236 238 230 228 227 192 210 211 180 194 178 181 175 190 192 196 207 205 228 256 210 219 225 192 190 190 221 227 213 242 238 194 206 215 240 259 32
252 106 270 295 298 281 141 290 197 286 237 222 242 227 228 222 219 225 194 199 179 194 189 181 179 188 193 201 208 209 223 225 213 185 140 189 190 204 207 199 213 211 226 214 192 207 244 251 161
266 266 297 311 288 275 210 253 265 205 277 254 221 233 219 203 196 187 189 175 175 170 170 173 175 187 197 198 227 205 229 220 227 138 147 202 201 218 199 225 212 210 227 190 225 192 211 202 243
258 254 247 252 255 249 244 286 290 301 333 345 337 205 203 190 170 163 163 161 164 162 173 161 172 180 197 199 200 220 225 208 190 168 189 208 196 214 206 219 209 215 214 228 204 218 208 234 242
226 239 237 225 215 244 75 275 282 305 291 310 301 196 187 177 169 164 164 164 164 167 170 167 174 180 187 193 197 208 225 211 196 200 206 193 205 217 225 207 209 218 211 211 219 203 225 213 232
217 237 231 247 268 279 153 265 305 334 302 297 254 236 183 178 174 166 169 164 166 170 171 177 175 185 186 187 194 199 197 203 206 196 220 205 193 220 218 212 224 214 215 216 211 216 224 219 226
174 229 272 285 238 265 276 302 262 300 270 241 243 214 191 180 170 160 166 169 168 176 183 182 174 180 180 183 185 186 193 219 195 168 211 339 303 282 208 213 213 222 215 217 216 228 206 229 216
272 231 208 224 266 269 283 302 276 324 334 39 238 220 194 177 167 159 166 170 171 176 177 185 182 180 180 180 183 182 182 187 181 190 198 239 279 253 247 222 211 213 214 215 219 231 207 218 225
193 229 234 297 312 303 291 292 357 277 309 322 282 221 188 176 170 162 163 169 171 177 173 177 178 174 184 184 174 162 170 173 160 173 179 152 148 207 205 216 228 217 218 218 211 216 226 215 225
235 220 232 225 230 230 295 283 281 300 312 310 305 183 184 175 166 162 160 163 163 166 165 165 175 174 179 168 166 162 166 174 161 158 151 144 85 99 100 135 191 194 224 232 233 238 248 230 227